sat.trackr.live / text

‹ back to catalog

FLOCK 4BE-13

NORAD 60512 · 2024-149AW

PAYLOAD ACTIVE UNKNOWN

§ Identity

Operator
Country
US
Launch date
2024-08-16
Launch site
AFWTR
Launch vehicle
Mass (kg)
RCS (m²)

Purposes: earth_obs

External: N2YO · Heavens-Above · Gunter

§ Orbital elements

Epoch: 2026-09-19T04:21:37.112256Z

Period
93.21 min
Inclination
97.3666°
Eccentricity
0.0002984
Mean motion
15.44846075 rev/d
Perigee alt
429.8 km
Apogee alt
433.9 km
Semi-major
6,810.0 km
B*
5.8964e-4
RAAN
347.7113°
Arg perigee
289.8448°
Mean anomaly
70.2479°
Rev number
11,686

§ Raw data

FLOCK 4BE-131 60512U 24149AW  26262.18167954  .00027629  00000+0  58964-3 0  99932 60512  97.3666 347.7113 0002984 289.8448  70.2479 15.44846075116860

JSON: /api/v1/satellites/60512 · /tle

For live sub-satellite position, see the globe view (requires WebGL).

§ Visibility from observer

Set your observer location to see the next 7 days of passes ≥ 10°. The values pass through the URL so the page stays shareable.

No JS? Fill the form by hand. The geolocation button needs JavaScript.